Main page
Satellite images Climate Cyclones Lightning AirportsFAQ Languages Contact Newsletter About
Weather : Europe Africa North America South America Asia Australia-Oceania Others

hong-kong-cn, Hong Kong, Hong Kong International Airport

45004

latitude: , longitude: China, elevation: 22-19N m


METAR: VHHH 250430Z 22015KT 9999 FEW018 32/23 Q1010 NOSIG